Wind_Speed
54 54 54 55 55 57 57 58 58 59 60 61 62 63 63 64 64 65 65 65 67 69 72 75 77 78 78 79 81 82 84 87 89 90 92 92 93 94 94 95 98 100 103 104 105 107 108 110 110 110 111 114 117 118 115 112 113 114 115 117 120 120 119 119 119 120 120 119 117 117 117 116 116 117 120 123 122 121 120 117 111 104 98 93 88
56 56 56 56 57 58 59 59 60 61 61 62 62 63 63 63 64 65 66 67 69 71 73 75 77 78 79 80 81 83 85 88 90 91 91 92 92 93 95 96 98 101 103 105 106 108 110 111 111 110 112 114 117 117 114 111 113 115 116 118 121 121 120 120 119 118 118 119 118 118 118 117 116 117 120 122 121 119 119 117 112 106 100 94 89
59 58 58 58 59 60 60 61 62 61 62 62 62 62 62 63 65 66 66 68 70 72 73 75 76 78 79 80 82 84 87 89 90 91 90 91 92 94 95 96 98 101 103 105 107 110 112 112 111 111 112 115 118 117 112 112 115 116 117 120 122 123 122 121 121 119 117 118 119 119 118 117 117 118 120 122 121 118 117 116 112 106 102 97 91
61 61 60 59 60 61 61 62 62 62 62 62 62 62 63 64 66 66 67 69 71 71 73 75 77 78 79 81 83 85 88 90 90 90 90 91 93 93 95 97 99 101 103 105 108 111 113 113 112 112 113 116 117 115 112 113 116 118 119 121 123 123 123 123 122 120 118 117 119 119 118 117 117 119 121 121 120 118 116 115 111 105 102 99 94
64 63 63 62 62 63 63 63 64 63 63 62 63 64 64 65 66 67 69 70 70 71 73 75 76 78 80 82 84 87 89 90 90 90 91 92 92 93 95 98 100 101 103 106 109 113 114 113 112 113 114 116 117 114 112 114 117 118 119 121 123 123 123 124 123 121 119 118 119 120 119 118 118 120 121 120 118 116 113 112 109 103 100 99 95
68 67 66 65 65 65 65 66 65 65 64 64 65 65 65 65 66 68 68 68 69 70 73 75 77 79 82 84 86 88 89 90 90 91 91 92 92 94 97 98 100 101 104 107 110 113 115 114 113 113 115 116 116 113 113 115 117 119 120 121 123 124 124 125 124 122 121 120 120 120 120 119 119 120 121 119 116 114 110 107 105 101 99 98 94
71 70 69 68 67 67 67 67 67 66 66 66 65 65 65 66 67 67 67 68 69 71 74 76 79 81 84 86 87 89 90 91 91 92 92 92 93 95 97 98 99 101 104 108 112 114 115 114 113 113 115 116 114 112 113 116 118 120 120 122 124 124 125 126 125 123 122 122 122 121 119 119 120 120 120 118 116 113 109 104 100 96 96 96 92
71 70 70 69 68 67 67 67 67 66 66 65 65 65 66 67 67 67 67 69 71 74 76 79 81 84 85 87 88 89 90 91 92 93 93 94 95 96 97 98 99 102 106 110 113 115 115 114 112 113 115 115 113 113 114 117 119 121 121 123 124 124 125 126 124 122 122 123 123 121 119 119 120 120 119 117 115 113 109 103 97 93 92 93 91
69 69 69 68 67 67 66 66 66 65 64 65 65 66 67 67 66 67 68 70 73 76 79 81 84 85 86 87 88 88 90 91 92 94 94 95 95 96 96 98 100 104 107 110 113 115 115 113 112 113 115 114 113 114 116 118 120 122 122 124 125 125 126 126 124 122 122 124 123 120 118 119 121 120 118 116 114 111 107 102 96 92 90 90 90
68 68 67 66 65 65 64 64 64 64 64 65 66 67 67 66 66 67 69 72 75 78 80 83 84 85 86 87 87 88 90 92 93 95 95 94 94 95 96 98 101 105 109 111 114 116 115 112 111 113 115 114 113 114 117 119 121 123 124 125 126 126 126 126 124 122 122 123 123 119 117 119 121 120 117 115 114 111 106 100 94 91 89 86 85
65 64 63 62 62 61 62 63 63 64 66 66 67 66 66 65 66 67 70 73 77 79 82 83 83 84 86 87 87 89 91 93 94 95 94 94 94 95 97 100 103 106 110 112 115 115 113 110 111 113 113 112 113 115 118 120 122 124 125 127 127 127 127 126 123 122 122 123 121 119 118 119 121 120 117 115 114 110 105 99 94 91 89 85 82
61 61 61 60 60 61 62 63 64 65 66 66 66 65 65 65 66 69 73 76 79 81 82 83 83 84 86 87 88 90 92 93 95 95 94 93 94 96 98 101 104 108 111 113 115 114 112 110 111 113 112 111 113 116 119 121 123 125 127 129 129 128 128 126 124 123 123 121 120 119 119 120 122 120 117 115 113 109 104 98 94 92 90 87 82
61 60 60 61 62 63 64 65 65 66 66 65 65 64 64 66 69 72 76 79 81 82 83 83 83 84 85 87 88 90 92 93 95 94 93 93 94 97 99 102 106 110 112 114 114 112 110 110 112 112 110 111 114 117 119 122 124 127 129 129 129 129 128 126 125 124 123 121 119 119 120 122 122 120 117 115 113 108 103 98 93 91 89 86 80
63 62 62 62 64 65 66 66 66 65 64 64 64 65 66 68 72 75 79 81 82 82 83 83 84 85 86 87 89 91 92 93 94 94 94 94 95 97 100 104 108 111 113 114 112 109 108 110 112 111 110 112 114 117 119 122 125 127 129 129 130 129 128 126 126 126 125 122 120 120 122 123 123 120 118 116 113 108 102 97 91 88 86 82 78
66 66 65 65 66 67 68 68 68 67 68 69 69 69 70 72 75 78 80 81 81 82 83 84 85 86 87 88 90 91 92 93 94 94 93 94 96 99 102 106 109 112 113 112 109 107 108 110 111 110 111 112 114 116 118 121 125 127 128 129 129 129 128 127 127 128 126 124 122 122 124 125 124 121 119 116 112 106 101 95 90 86 83 79 77
70 70 69 68 67 67 68 69 70 71 72 73 73 73 73 75 77 78 80 81 82 84 85 85 86 88 89 90 91 91 92 93 93 93 93 95 97 101 104 107 110 112 111 108 106 106 108 109 109 110 111 113 115 116 118 121 124 126 127 128 128 128 127 127 128 129 127 125 123 124 126 126 124 122 119 116 110 104 99 95 91 87 82 77 75
71 71 71 70 69 68 67 68 69 72 73 74 74 74 75 76 78 79 80 82 83 85 85 86 87 89 90 91 91 91 91 93 93 93 94 97 99 102 106 108 111 111 109 105 104 105 107 107 108 109 111 113 115 116 118 121 123 125 125 126 126 126 126 127 129 129 127 125 125 126 127 126 124 122 120 116 109 103 98 95 92 88 83 77 74
74 73 73 74 73 71 70 69 69 72 75 76 77 77 78 79 79 80 81 83 85 85 86 87 88 89 90 90 90 90 91 92 93 94 96 98 101 104 107 109 111 109 106 103 104 105 107 106 107 108 111 113 115 117 119 121 123 124 124 124 124 124 124 127 128 127 125 124 125 127 127 126 123 122 120 116 109 103 99 96 93 88 84 79 74
78 77 77 78 77 76 74 72 72 74 76 78 79 80 80 81 81 82 84 85 86 86 87 88 88 88 88 88 89 90 91 92 94 95 97 99 102 106 108 109 109 105 103 102 104 106 106 105 106 109 111 114 116 118 119 121 123 124 123 122 122 122 123 126 125 123 122 122 124 126 126 124 122 121 118 114 109 104 100 97 93 88 83 79 75
82 81 81 81 81 80 79 77 77 77 78 80 81 82 82 83 84 84 86 87 87 88 88 88 87 87 87 88 89 90 91 93 94 96 98 101 104 107 108 107 104 101 101 103 104 105 105 105 107 109 112 114 117 118 120 122 124 124 123 121 120 121 123 124 123 121 120 121 124 125 123 121 120 119 116 112 107 104 101 98 93 88 82 78 76
87 86 85 85 84 84 84 83 83 83 83 84 85 85 85 86 86 86 87 88 88 88 87 86 86 86 87 88 89 91 92 94 95 97 100 103 105 107 106 103 100 99 101 103 104 104 104 105 108 110 112 115 117 119 121 123 124 123 122 120 120 121 123 123 121 119 119 121 123 123 121 119 118 116 113 109 105 102 100 97 92 86 82 79 75
90 89 88 88 88 88 88 88 88 88 88 88 88 88 88 88 88 88 88 88 87 86 85 85 86 86 87 89 91 92 93 94 97 99 102 104 105 105 102 98 97 99 101 102 102 102 104 106 108 111 113 116 117 119 122 124 123 122 121 120 120 122 123 122 119 118 120 122 123 121 119 118 117 114 111 107 104 101 99 96 91 86 83 80 76
91 90 90 90 90 90 90 89 89 89 90 90 89 89 89 89 88 88 88 86 85 85 85 85 86 86 88 90 92 93 94 96 98 101 102 103 103 100 97 94 96 99 100 99 100 102 104 106 109 112 114 116 118 121 123 124 123 121 120 120 121 123 123 121 118 119 121 123 123 120 119 117 115 111 107 104 102 100 98 94 90 86 83 82 79
92 91 91 91 90 90 89 89 89 89 89 89 89 88 88 88 87 86 85 84 84 84 85 86 86 87 89 91 92 93 95 98 100 101 102 101 99 96 92 93 95 97 97 98 100 102 104 108 111 113 114 116 119 122 124 123 122 121 120 121 123 124 122 119 118 120 123 124 122 120 118 116 113 108 104 101 100 98 95 92 89 86 84 82 80
92 92 91 91 90 89 88 88 87 87 87 87 87 87 86 86 85 84 83 84 84 85 85 86 86 88 90 92 94 95 97 99 100 100 99 98 95 91 90 92 94 95 96 98 100 102 106 109 112 113 114 116 119 122 123 123 121 120 120 122 124 123 120 119 120 122 124 123 121 118 117 114 110 105 102 100 99 96 92 89 87 86 83 80 79
90 89 89 88 87 86 86 85 84 84 84 85 84 84 83 83 82 83 84 85 86 87 87 87 89 91 92 94 95 96 97 99 98 97 96 93 90 88 89 91 92 93 96 98 100 103 107 110 111 112 114 117 119 121 121 121 120 120 121 123 124 121 119 120 122 124 124 121 119 117 115 111 107 103 101 100 97 93 89 87 85 84 81 78 76
89 88 88 87 86 85 84 83 82 82 81 81 82 81 82 83 84 85 87 88 88 89 89 90 92 93 94 95 95 96 97 97 95 93 91 88 86 87 89 90 91 93 96 98 101 104 107 109 110 111 114 117 119 119 119 118 119 120 123 124 122 120 119 121 123 124 123 120 118 116 113 108 105 102 100 98 95 91 88 85 84 82 79 76 74
90 90 90 89 89 88 87 87 86 85 84 84 84 85 86 88 89 90 90 90 91 91 92 92 93 94 94 94 94 94 94 92 90 88 86 84 85 87 87 88 90 93 96 99 102 105 106 107 109 111 114 116 118 118 117 117 119 122 123 122 120 119 119 122 124 123 121 119 117 114 110 106 103 100 99 96 92 89 87 84 82 80 77 74 72
92 92 92 92 92 91 91 90 90 89 88 88 88 89 90 92 93 93 93 93 92 92 92 92 92 92 91 91 91 91 89 88 87 85 82 81 83 85 85 87 90 93 96 100 102 104 105 106 108 111 114 115 116 115 115 117 119 122 122 119 118 119 121 123 124 122 120 118 116 112 107 103 101 99 96 92 89 87 86 83 80 78 76 74 72
95 95 95 95 95 94 93 93 93 93 92 92 92 93 93 94 94 93 93 92 92 91 90 90 89 89 88 88 87 86 85 84 83 80 79 80 82 83 84 87 91 94 97 100 101 102 103 105 108 111 113 113 113 113 114 117 119 120 118 117 117 119 121 123 122 120 118 117 113 109 104 101 99 97 93 89 87 86 84 82 79 77 75 73 71
94 94 95 95 94 94 93 94 94 94 94 93 93 93 93 93 92 92 91 90 89 88 87 87 86 85 84 84 83 82 81 79 77 76 77 79 81 83 85 88 91 94 97 99 100 100 102 105 108 111 111 111 111 112 114 117 117 115 114 115 117 120 121 122 120 118 116 114 110 105 102 100 97 94 90 87 85 83 82 79 78 76 75 73 70
90 91 92 92 92 91 91 91 91 91 91 90 90 90 89 89 88 87 87 85 84 82 82 81 80 80 80 80 80 79 77 74 73 75 77 80 83 84 87 89 92 95 97 97 98 100 102 105 108 109 109 109 110 112 115 116 114 112 112 114 117 120 121 119 117 116 114 110 106 103 101 98 95 90 88 85 83 80 79 77 76 75 73 72 70
87 87 88 88 88 88 88 88 88 87 86 86 85 84 84 82 81 80 78 77 76 75 75 75 75 76 77 77 76 74 71 70 72 75 79 81 84 85 87 90 93 94 95 96 97 100 103 105 106 107 107 107 110 113 114 112 110 110 112 115 118 119 118 117 115 114 111 107 103 101 99 96 91 87 85 83 81 78 77 76 75 73 72 71 69
83 84 84 83 82 83 83 83 83 82 81 80 79 78 77 75 73 72 71 70 70 70 71 72 73 73 73 71 70 68 68 70 73 76 79 81 83 85 88 91 92 93 93 94 96 100 103 104 105 105 105 107 110 112 110 107 107 110 113 115 117 117 115 114 113 111 107 104 102 100 97 93 89 86 84 82 79 78 76 75 74 72 70 68 66
78 81 81 79 77 77 77 77 77 76 75 74 73 71 70 69 67 66 66 66 66 67 67 67 66 66 65 66 66 67 69 71 74 76 78 80 83 86 89 90 90 90 91 93 97 100 101 102 102 102 104 107 110 108 105 104 107 110 113 115 116 114 113 112 110 107 104 102 100 98 94 90 87 85 83 80 78 77 75 74 73 71 68 65 62
75 77 78 76 73 72 72 72 72 71 70 69 67 65 63 62 62 61 60 60 59 59 59 59 60 61 63 65 68 69 70 72 74 76 78 81 84 87 87 87 87 89 90 93 97 99 100 100 100 101 105 107 106 103 102 104 108 110 113 114 113 111 111 109 107 104 101 100 98 95 91 88 86 84 81 79 77 75 74 72 70 68 65 62 59
74 75 76 74 71 68 67 67 67 67 66 64 61 58 57 57 56 55 54 53 53 53 55 57 60 62 64 67 69 69 70 71 73 76 79 82 84 84 84 84 85 88 91 94 96 97 97 98 99 102 105 104 100 99 101 105 108 111 112 112 110 109 109 106 103 101 99 97 95 91 88 86 84 81 78 76 75 74 71 69 67 65 63 60 57
71 74 75 74 72 68 65 64 64 63 62 60 57 55 54 54 53 51 50 50 51 52 55 58 61 64 66 67 68 69 70 72 74 77 79 80 80 79 80 82 85 88 91 93 94 95 95 96 99 102 102 98 96 98 102 105 108 110 111 109 108 107 106 103 100 98 97 95 91 88 86 84 82 79 77 75 74 71 68 66 63 62 60 58 55
67 70 73 75 74 71 67 63 61 61 60 60 60 58 55 54 54 52 50 50 52 55 58 61 64 66 67 68 69 70 71 73 74 75 75 75 75 76 78 82 85 89 91 92 92 93 94 97 100 100 96 93 95 100 103 105 108 109 108 106 106 105 102 100 97 96 94 91 88 85 83 82 79 77 76 74 72 69 65 62 60 58 57 55 52
63 66 69 72 73 73 70 64 61 61 61 61 62 61 59 57 56 55 54 55 57 59 62 63 64 66 66 67 68 69 70 71 71 70 70 70 72 75 78 83 86 88 89 90 90 92 95 98 98 93 90 92 97 100 103 105 107 106 104 104 103 101 99 96 95 93 91 88 85 83 81 79 77 76 75 73 69 65 62 59 57 55 53 51 48
59 61 64 67 70 72 72 69 66 63 60 59 60 61 61 60 58 57 58 60 61 62 63 63 63 63 64 65 67 69 68 66 65 65 66 69 72 76 80 83 85 86 87 88 89 92 96 95 91 87 89 94 97 100 103 105 104 103 102 102 100 98 95 94 92 90 87 84 82 81 79 76 75 75 74 70 66 63 60 57 54 52 50 47 45
54 56 58 61 64 68 71 73 71 66 61 58 59 60 60 60 59 59 61 62 61 61 61 61 61 62 64 66 67 66 63 61 61 63 66 70 73 78 81 82 82 84 85 86 90 93 93 88 85 86 90 94 97 100 102 102 101 100 100 99 97 94 93 91 90 87 84 82 80 78 76 75 75 74 71 67 64 62 59 54 51 49 47 45 43
51 52 54 55 58 62 67 72 74 70 65 62 60 59 59 59 59 59 60 60 59 59 59 60 60 62 64 64 62 59 57 58 61 64 67 71 75 78 79 80 81 82 84 87 91 90 86 82 82 87 91 94 97 99 100 99 98 98 97 96 94 91 90 88 86 83 81 79 78 76 75 75 74 71 67 65 64 62 58 53 50 48 46 44 43
47 48 48 50 52 55 61 68 73 73 71 67 62 59 59 59 59 59 59 58 57 56 57 58 59 60 59 57 55 54 56 59 62 65 69 73 76 77 77 78 79 81 84 88 88 83 78 79 83 88 91 94 97 98 98 96 96 96 95 93 90 89 87 85 83 80 78 77 75 74 74 73 71 67 65 64 62 60 56 52 50 48 46 44 43
42 42 43 44 46 50 55 62 67 72 73 70 65 62 61 61 60 61 60 58 56 55 56 57 56 54 51 50 51 54 57 60 63 67 72 74 74 74 75 77 79 82 85 85 80 75 75 80 85 88 91 94 96 96 95 94 94 94 92 90 87 86 85 83 80 77 75 74 73 72 72 71 68 65 63 62 60 56 53 51 49 47 45 43 41
37 38 38 39 40 44 49 53 58 65 70 70 67 65 65 64 63 62 60 58 56 54 52 50 47 45 46 48 51 55 58 61 65 70 72 72 72 73 74 76 79 82 82 78 73 72 76 81 84 88 91 94 95 94 93 92 92 92 89 87 85 84 82 80 77 75 73 71 70 70 69 68 65 63 61 59 57 54 51 50 48 46 44 42 40
33 34 34 34 35 38 41 43 47 54 62 66 67 66 66 66 65 62 57 53 50 46 42 40 41 43 46 49 53 56 60 64 68 69 69 69 70 72 73 77 80 80 75 70 69 73 77 81 85 88 91 93 93 92 90 91 91 89 86 84 83 82 80 77 74 73 71 69 68 67 66 64 62 61 59 57 55 52 50 49 47 45 43 41 39
29 29 29 30 30 31 31 33 36 42 50 57 62 63 63 61 59 53 47 41 38 36 36 38 41 45 48 51 54 58 62 66 67 67 67 68 69 71 74 77 77 72 67 66 70 74 77 81 85 88 90 91 91 89 88 89 89 86 84 82 81 80 78 75 73 71 69 67 65 64 62 61 60 58 56 54 52 51 49 48 46 44 42 39 36
24 24 24 23 23 23 24 26 29 33 38 44 48 50 48 46 42 37 34 32 32 33 36 40 43 46 49 53 57 60 63 64 64 64 65 67 69 72 74 74 69 65 64 67 70 74 78 82 85 88 89 90 88 87 87 88 86 83 82 80 79 78 76 74 71 69 66 64 63 61 59 57 57 55 53 51 49 48 46 45 43 41 40 37 35
19 18 17 17 17 19 21 22 24 26 28 30 31 32 30 29 28 28 28 30 32 34 38 41 45 48 52 55 58 61 61 61 61 63 65 66 69 71 71 66 62 61 64 67 70 74 78 82 85 87 88 87 85 85 86 86 84 81 80 78 77 77 75 71 69 66 63 62 60 58 56 54 53 52 50 48 46 44 42 41 41 40 40 38 36
12 12 12 13 15 16 16 17 17 17 18 18 19 20 21 22 23 25 27 30 33 36 40 43 47 50 54 56 58 58 58 59 61 62 64 66 68 68 64 59 58 61 64 66 70 75 79 82 85 86 86 84 84 84 85 84 82 79 78 76 76 75 73 69 67 65 62 60 58 56 53 52 51 49 48 47 45 42 41 41 41 41 41 39 37
Wind_Direction
274 274 275 275 276 276 276 277 277 278 279 281 283 285 286 286 285 285 286 289 293 295 295 294 294 295 296 297 299 300 302 303 305 307 308 310 311 312 313 313 314 316 319 322 324 324 324 324 323 322 322 322 322 323 323 322 324 325 326 327 328 329 331 332 333 333 331 331 332 333 334 334 334 334 334 333 333 333 332 331 331 331 330 331 331
273 274 275 275 276 276 276 277 278 279 280 282 284 285 285 285 284 284 287 291 295 296 295 294 294 295 296 297 299 301 302 303 305 307 309 310 311 312 312 313 314 316 319 321 323 324 324 323 322 322 321 321 322 322 322 322 324 325 326 327 328 329 331 333 333 333 332 332 332 333 334 334 334 334 334 333 333 333 332 331 331 331 330 331 331
272 273 274 275 276 276 277 277 278 280 281 282 283 284 283 282 283 285 289 293 296 296 294 293 294 296 297 298 300 301 302 303 305 308 309 310 311 311 312 313 314 316 318 321 323 324 324 323 322 321 321 321 322 322 321 322 324 325 325 326 328 329 331 333 333 333 332 332 333 334 334 334 334 334 334 333 333 333 333 332 331 331 330 330 331
270 271 272 274 275 276 277 277 278 280 281 282 282 282 281 281 283 286 291 295 295 294 293 294 295 296 297 299 300 301 302 304 306 308 309 310 311 311 312 313 314 316 319 321 322 323 323 322 321 321 321 321 321 321 321 322 324 325 325 326 328 330 332 333 333 333 333 333 334 334 334 334 334 334 334 333 333 333 333 332 331 331 330 329 330
268 269 271 272 273 275 276 277 278 280 280 280 280 281 281 282 285 289 293 295 294 293 294 295 296 296 297 299 300 301 303 304 307 308 309 310 311 311 312 313 315 317 319 320 322 322 322 322 321 320 320 321 321 321 321 322 324 325 325 326 328 330 332 333 333 333 332 333 334 334 334 334 334 334 333 333 332 333 333 332 331 331 330 329 329
267 269 270 272 273 275 276 278 279 280 280 280 280 282 282 284 287 291 293 293 292 292 293 294 295 296 297 299 300 302 303 305 307 308 309 310 311 311 312 314 315 317 318 320 321 321 322 321 320 320 320 320 320 320 321 322 324 324 325 326 329 331 333 333 333 333 333 333 334 335 334 333 333 333 333 332 332 332 333 333 331 331 329 328 328
269 270 271 273 275 276 277 278 279 280 280 281 282 282 283 286 289 291 291 290 289 290 292 293 295 296 298 299 301 303 304 306 307 309 309 310 311 312 313 314 315 317 318 319 320 321 321 321 320 319 320 320 320 320 321 322 323 324 325 327 330 332 333 333 333 333 333 334 334 334 333 333 333 333 332 331 332 332 333 333 332 330 328 326 326
270 271 272 273 274 276 277 278 279 280 281 281 281 282 284 287 289 290 289 288 287 289 291 293 294 296 298 300 302 304 305 306 307 308 309 310 311 313 314 314 315 316 318 319 320 320 320 320 319 319 320 320 320 320 321 322 323 324 325 327 330 332 333 333 333 333 333 333 334 334 333 332 332 332 332 331 332 332 332 332 331 330 328 326 325
270 271 271 272 273 274 276 277 278 279 279 279 281 283 285 287 288 288 288 287 287 289 291 293 295 297 299 300 302 304 305 306 307 308 309 311 312 313 313 313 314 316 317 318 319 320 320 319 318 319 319 319 319 319 320 321 323 324 326 328 331 333 333 333 332 333 333 333 333 333 332 331 331 331 331 331 332 332 332 332 331 329 328 327 325
269 270 271 272 273 274 276 276 277 277 278 280 282 283 285 286 287 287 286 286 288 290 292 294 295 297 299 301 303 304 305 305 306 308 309 311 312 312 312 313 314 315 317 318 318 319 319 318 318 319 319 319 318 319 320 321 323 324 326 329 331 332 333 332 332 332 333 333 332 332 332 331 331 331 331 331 332 332 331 331 331 329 328 327 325
267 268 270 271 273 274 275 275 276 277 278 280 281 282 284 285 285 285 285 286 288 291 292 294 295 297 299 301 303 303 304 305 306 308 310 311 311 311 311 312 313 315 316 317 318 318 318 317 318 318 318 318 318 319 320 321 323 325 327 330 331 332 332 332 331 332 332 332 331 331 331 331 331 330 331 331 332 332 331 331 330 329 327 327 325
264 266 268 269 271 272 273 274 275 276 278 279 280 281 283 283 283 283 284 286 289 291 292 294 295 297 299 301 302 302 303 305 306 308 310 311 311 310 311 312 313 314 316 317 317 317 317 317 317 318 317 317 318 319 319 321 323 325 328 330 331 332 332 331 331 331 332 332 331 331 331 331 331 330 331 331 332 332 331 331 330 329 328 327 325
262 263 265 267 269 271 272 273 274 275 276 277 279 280 282 282 282 282 284 286 288 290 292 293 295 297 299 300 301 302 303 304 305 308 310 310 310 310 310 311 313 314 316 316 316 316 316 317 317 317 317 317 318 319 320 322 324 326 328 330 331 331 331 330 330 331 331 331 331 331 331 331 331 330 331 331 331 331 331 331 331 330 328 326 323
259 261 263 266 268 270 271 272 272 273 274 276 277 279 280 280 280 281 283 285 288 290 292 293 295 296 298 299 300 301 302 304 306 308 309 309 309 309 310 311 312 314 315 316 315 315 316 316 317 316 316 317 318 319 320 322 324 326 329 330 330 331 330 330 330 330 331 331 331 331 331 331 331 330 331 331 331 331 331 330 330 329 327 325 322
258 260 262 264 267 269 270 271 272 273 273 275 276 277 277 278 279 281 284 286 288 290 292 293 295 296 297 298 299 301 302 304 306 308 308 308 308 309 309 311 312 314 315 315 315 315 315 316 316 316 316 317 318 319 321 322 324 326 329 330 330 330 330 330 330 330 331 331 331 331 331 331 331 330 330 330 330 330 330 328 328 328 327 325 323
259 259 261 262 265 268 270 272 273 273 274 275 275 276 277 278 280 282 285 287 289 290 292 293 294 295 296 298 299 301 302 304 306 307 307 307 307 308 309 311 312 313 314 313 314 314 315 315 315 315 316 317 319 320 321 322 324 327 329 329 329 330 330 330 330 330 331 331 330 331 331 331 330 329 329 330 329 329 329 328 328 328 328 327 325
258 259 260 261 262 265 268 271 272 272 273 274 275 277 278 280 282 284 286 287 289 290 292 293 293 295 296 298 299 301 303 304 305 305 305 306 307 308 309 311 312 312 312 312 313 313 314 315 315 315 316 317 319 320 321 322 324 327 328 329 329 329 329 330 330 330 330 330 330 331 331 330 329 329 329 329 329 329 328 328 329 329 328 328 327
257 258 260 261 261 263 266 269 271 272 273 274 276 278 280 282 283 285 286 287 288 290 292 292 293 295 296 298 300 302 302 303 304 304 305 305 306 308 309 311 312 312 311 312 312 313 314 314 314 315 316 318 319 320 321 322 325 327 328 329 329 329 329 329 329 329 329 329 330 330 330 330 329 328 328 328 328 329 329 329 329 329 329 328 328
258 259 260 261 262 263 264 267 270 272 273 274 276 278 280 282 283 285 286 287 289 290 291 292 294 295 297 299 300 301 301 302 302 303 304 305 306 308 309 311 311 310 311 311 312 312 313 313 314 315 316 318 319 320 321 323 326 327 328 328 328 328 329 329 329 328 328 329 329 330 330 329 328 328 328 329 329 329 329 329 329 329 328 327 327
260 260 261 262 263 264 265 266 268 270 272 274 276 278 280 281 283 284 285 287 288 290 291 292 294 295 297 299 300 300 300 301 301 302 303 305 306 308 309 310 310 310 310 311 311 312 312 313 314 315 317 318 319 320 322 324 326 327 328 328 328 328 328 328 328 328 328 329 329 329 329 328 327 328 328 329 329 328 328 328 328 328 327 327 327
261 262 263 263 264 265 266 266 268 270 271 273 275 277 278 280 281 283 284 286 287 289 290 292 293 295 297 299 299 299 299 300 301 302 303 304 306 308 309 309 309 309 310 310 311 312 312 313 315 316 317 318 319 321 323 325 326 327 327 328 328 328 328 328 328 328 328 329 329 329 328 327 327 328 329 328 328 328 328 327 327 327 326 326 326
262 263 264 265 266 267 268 268 269 270 272 273 275 276 278 279 281 282 284 285 287 288 290 291 294 296 297 297 297 298 298 299 300 301 303 304 306 307 308 308 308 309 309 310 311 312 313 314 315 317 317 318 320 322 323 325 326 327 327 327 328 328 328 328 328 328 328 329 329 328 328 328 328 329 329 328 328 327 327 327 326 327 326 326 326
262 263 265 266 267 268 269 270 271 272 273 273 274 276 277 279 280 282 283 285 286 288 289 292 294 296 296 296 296 297 298 299 300 301 303 304 306 306 306 307 308 308 309 310 311 312 313 315 316 317 318 319 321 322 324 325 326 326 327 327 328 328 328 327 327 328 329 329 329 328 328 328 328 329 328 328 327 327 327 326 326 326 326 326 326
263 263 265 266 267 268 270 271 272 273 273 274 274 275 277 278 280 281 283 284 285 287 290 292 294 295 295 295 295 296 297 298 299 301 302 304 305 305 306 306 307 308 309 310 311 312 314 316 316 317 318 320 322 323 324 325 326 326 327 328 328 327 327 327 328 329 329 329 328 328 328 328 328 328 328 327 327 327 327 326 326 326 327 326 325
263 264 265 266 267 268 269 271 272 272 273 273 274 275 276 278 279 281 282 284 286 289 291 293 294 294 294 294 294 295 297 298 299 300 302 303 304 305 305 306 307 308 309 310 311 312 314 316 317 318 319 321 322 323 324 325 326 327 327 327 327 327 327 327 328 329 329 328 328 327 328 328 328 328 328 327 327 327 326 326 326 326 327 326 325
262 263 264 265 267 268 269 271 272 273 273 274 274 275 276 277 279 281 283 285 288 290 291 292 292 292 292 292 294 295 296 297 298 300 302 303 303 304 305 306 307 308 309 310 311 313 315 316 317 318 320 321 322 323 324 325 326 327 327 327 327 327 327 328 329 329 328 328 327 327 328 328 329 328 328 327 327 326 326 326 326 326 326 326 324
262 262 263 264 265 266 268 270 272 273 273 273 274 275 276 277 280 282 285 287 288 290 290 291 291 290 291 292 293 294 295 296 298 299 301 302 302 303 305 306 307 309 310 310 311 313 315 316 318 319 321 322 323 323 324 325 326 326 326 326 326 327 327 328 328 328 328 327 327 328 328 329 329 329 328 327 327 326 326 326 326 326 326 325 324
263 264 265 266 266 267 268 270 271 272 273 273 274 276 278 279 281 283 285 286 287 288 289 289 289 289 290 291 292 293 294 295 297 299 300 301 302 303 305 306 308 310 310 310 312 314 315 317 318 320 321 322 323 324 325 325 326 326 326 326 326 326 327 328 328 328 327 327 327 328 329 329 329 328 328 327 326 326 326 327 326 326 325 325 324
266 267 268 269 269 270 270 271 273 274 274 275 276 278 279 280 282 283 284 285 286 286 287 287 287 288 289 290 290 291 293 295 297 299 299 300 302 304 305 306 308 310 310 311 312 314 316 318 319 320 321 322 323 324 325 326 326 326 325 325 326 327 327 327 327 327 327 327 328 329 329 329 329 328 327 327 327 327 327 327 327 326 325 324 324
268 268 269 270 271 271 272 273 273 274 275 276 276 277 278 279 281 282 283 284 284 284 285 285 286 287 287 288 289 291 293 295 297 298 299 301 303 304 304 306 308 310 310 312 314 315 317 318 319 321 321 322 323 324 325 326 325 325 325 325 326 326 327 327 327 327 327 327 328 329 329 329 328 328 328 328 328 328 327 327 327 326 325 324 324
267 268 269 269 270 271 271 272 273 273 274 275 276 276 277 278 280 281 281 282 282 283 283 284 285 285 286 287 289 290 292 295 296 298 300 301 302 303 304 306 308 310 311 313 315 317 318 319 320 321 322 322 324 325 325 325 325 324 324 325 325 326 327 327 327 327 327 328 329 329 329 329 328 328 328 329 329 328 327 327 327 325 325 325 325
266 267 268 269 269 270 271 272 272 273 274 275 276 276 277 278 279 280 281 281 281 282 282 283 283 284 285 286 288 290 293 295 297 298 299 301 301 302 304 306 309 310 312 314 316 317 318 319 320 321 322 323 324 325 325 324 324 324 324 325 326 326 327 327 326 327 328 328 329 329 329 329 329 329 329 329 329 329 328 327 326 326 326 326 326
266 266 267 268 269 270 271 272 273 273 274 275 276 277 277 278 279 280 280 281 281 281 281 282 282 283 284 286 289 292 294 296 297 297 299 300 301 302 304 306 309 311 313 315 317 317 318 319 320 321 322 324 324 324 324 323 323 324 325 326 326 326 327 326 327 327 328 329 329 329 329 329 329 330 330 329 330 330 329 328 327 327 328 328 327
265 265 266 267 268 270 271 272 273 273 274 275 275 276 277 278 279 279 279 280 280 280 280 281 282 283 285 288 290 292 294 295 296 297 299 300 302 303 305 307 310 312 314 316 317 317 319 320 321 322 323 324 324 323 323 323 323 324 325 326 326 327 327 327 327 328 329 329 330 329 329 330 330 331 331 331 331 330 330 329 329 329 329 329 328
261 263 265 266 266 268 269 270 272 272 273 274 275 276 277 278 279 278 278 278 279 280 281 283 285 286 288 290 291 292 294 295 296 297 299 301 303 305 307 309 311 313 315 316 317 318 319 320 321 322 323 324 323 323 323 323 324 325 326 326 327 327 327 327 328 329 330 330 330 330 330 331 331 332 332 332 332 332 331 331 330 330 330 330 330
257 259 262 263 264 265 267 268 270 271 272 273 274 276 276 276 276 277 278 279 281 282 284 285 287 288 289 290 291 293 294 295 296 298 301 302 304 306 308 310 312 314 315 316 317 318 319 320 322 323 323 323 323 322 323 323 324 325 326 327 327 327 328 329 330 330 330 330 330 330 331 332 333 333 333 333 333 333 333 332 331 330 331 331 332
255 255 257 259 260 261 263 265 267 269 271 272 273 273 273 273 274 276 278 280 281 282 283 284 286 287 288 290 291 292 294 295 297 300 302 303 305 307 310 312 313 314 315 316 317 318 319 321 323 323 323 322 322 322 323 324 325 326 327 327 328 328 329 330 330 331 331 331 331 331 332 333 333 333 334 334 334 334 334 333 332 332 332 333 333
255 254 254 254 254 255 257 261 263 266 268 269 269 268 269 270 272 274 275 276 277 278 280 283 285 287 288 289 290 292 294 296 299 301 302 304 307 309 311 312 313 314 316 317 318 319 320 322 323 323 322 322 322 323 324 325 326 327 328 328 328 329 330 331 331 332 332 332 332 333 333 334 334 334 335 336 336 335 334 334 333 333 334 334 335
256 254 254 253 251 250 251 254 258 261 263 264 265 265 265 266 268 269 270 272 274 277 281 285 287 288 288 289 290 292 295 298 300 302 304 306 309 311 312 313 314 315 316 317 318 320 321 323 323 322 322 322 323 324 325 326 327 328 328 329 329 330 331 332 332 332 332 332 333 334 334 334 335 336 337 337 337 336 336 336 335 335 336 336 336
256 255 254 252 250 248 247 248 251 255 257 260 263 263 263 263 265 267 268 270 273 278 283 286 288 289 291 292 294 296 298 301 302 304 307 309 311 311 312 313 315 316 317 318 319 321 322 322 322 322 322 323 324 325 326 327 328 329 329 329 330 332 332 333 333 333 333 334 334 335 335 336 337 338 338 338 337 338 338 338 338 338 338 338 338
256 255 254 252 250 247 244 243 246 250 254 257 260 261 262 263 265 266 268 271 276 281 285 287 289 291 293 294 296 299 303 304 306 308 310 310 311 311 313 314 316 316 317 319 321 322 322 322 322 322 323 324 325 326 327 328 329 330 330 331 332 333 333 333 334 334 334 335 336 336 336 337 339 339 339 338 339 341 341 340 340 340 340 339 340
256 255 253 252 251 247 243 241 243 246 249 252 255 258 261 263 265 267 270 275 279 283 286 288 290 291 292 294 298 302 305 307 308 309 310 310 311 312 314 315 316 317 319 321 322 322 322 322 323 323 324 325 326 327 328 329 330 330 331 332 333 334 334 335 335 336 336 337 337 337 338 339 340 340 340 341 342 343 342 342 342 342 342 342 344
256 255 253 252 251 248 243 240 240 243 246 249 252 256 260 264 267 271 275 279 283 287 289 290 290 291 292 296 300 304 306 307 309 309 309 310 312 314 315 315 317 318 320 321 321 321 322 322 323 324 324 326 327 328 329 330 331 332 333 334 335 335 335 336 337 337 338 338 338 339 340 341 341 340 341 343 344 344 343 343 344 345 346 347 348
255 256 255 253 251 248 244 241 239 240 243 246 251 255 260 265 270 274 277 282 288 291 290 290 290 291 294 298 302 305 307 308 309 309 309 311 313 314 315 316 318 320 321 321 321 321 322 323 324 324 325 327 329 330 331 331 332 333 334 335 336 336 336 337 338 339 340 340 340 341 342 341 341 342 344 346 345 344 344 345 347 348 349 350 351
255 256 256 254 251 249 246 242 240 239 241 245 249 255 260 265 270 273 277 283 288 289 288 289 291 294 297 302 305 306 307 308 308 308 310 313 314 314 316 318 320 321 321 321 321 322 324 324 324 325 327 329 330 331 332 333 333 334 336 337 337 337 338 339 340 341 341 342 342 343 342 342 342 344 346 346 345 345 347 349 350 351 352 353 354
255 255 256 255 252 249 247 245 243 240 240 242 246 253 258 263 267 272 278 284 286 286 287 291 295 298 302 305 306 306 307 307 308 310 312 313 314 315 317 319 320 320 321 321 322 324 324 324 325 327 329 330 331 332 333 334 335 336 337 338 338 338 340 341 342 343 343 344 344 344 343 343 344 346 347 347 347 349 351 353 354 355 356 357 358
253 255 255 254 251 249 248 247 245 242 241 241 244 249 255 260 266 272 279 284 285 286 289 295 300 303 305 305 305 305 306 307 309 311 312 313 315 317 319 320 320 320 321 322 324 325 325 325 327 329 330 332 333 333 335 335 336 337 339 339 339 340 342 343 344 345 346 346 346 345 344 345 347 348 348 348 350 353 355 357 358 359 359 360 0
252 254 255 253 251 248 246 244 243 242 241 240 242 247 254 261 267 273 279 282 284 288 296 301 304 304 304 304 305 306 307 309 310 312 313 314 317 319 320 320 320 321 322 323 325 325 325 326 329 331 332 333 334 335 336 337 338 339 340 340 340 342 344 345 346 347 347 347 346 346 346 348 349 350 350 351 353 356 358 360 1 1 2 2 3
252 254 253 251 246 241 238 237 237 238 239 241 245 251 258 264 269 273 277 282 289 297 302 303 303 303 303 304 305 306 308 310 311 312 314 316 318 319 320 320 321 322 323 325 326 326 326 328 331 332 333 334 335 336 337 338 339 341 341 341 342 344 346 347 348 348 348 348 347 347 348 350 352 352 353 354 356 358 1 3 4 5 6 6 8
251 251 247 240 231 227 228 231 235 239 243 248 252 256 261 265 269 275 283 292 299 303 302 301 301 302 303 304 306 307 309 311 312 314 316 318 319 320 320 321 321 323 325 326 326 327 328 330 332 333 334 335 337 338 339 340 341 342 342 343 344 346 348 348 348 350 350 350 349 349 351 353 354 355 357 358 359 1 5 7 10 11 12 12 12
244 237 226 215 211 215 223 230 236 242 246 250 253 257 263 270 279 288 296 301 302 301 300 300 302 303 304 305 307 308 310 312 314 316 318 319 320 320 321 321 322 325 327 327 327 328 330 332 333 334 335 337 338 340 341 342 342 343 344 344 346 348 349 349 350 352 352 351 350 351 353 355 357 358 0 2 3 5 9 12 15 16 16 16 15
Height
10532 10532 10531 10530 10529 10527 10526 10524 10523 10521 10520 10518 10516 10514 10512 10510 10506 10503 10500 10499 10496 10493 10490 10485 10481 10477 10473 10469 10464 10459 10454 10449 10444 10439 10433 10427 10420 10414 10407 10400 10393 10387 10379 10372 10364 10357 10349 10341 10332 10324 10315 10307 10298 10290 10281 10272 10263 10253 10244 10234 10224 10218 10210 10198 10188 10174 10152 10137 10130 10119 10106 10096 10085 10073 10060 10046 10032 10018 10005 9994 9988 9981 9974 9968 9961
10525 10524 10523 10523 10521 10520 10518 10517 10515 10514 10513 10511 10509 10507 10505 10502 10499 10496 10494 10492 10490 10486 10482 10478 10474 10470 10466 10461 10457 10452 10447 10441 10436 10431 10425 10419 10412 10406 10399 10392 10386 10379 10371 10364 10356 10349 10340 10332 10324 10315 10307 10298 10290 10282 10274 10265 10257 10247 10236 10227 10217 10207 10199 10189 10178 10168 10151 10132 10120 10110 10097 10086 10078 10067 10054 10040 10029 10016 10000 9985 9976 9969 9961 9956 9952
10517 10516 10516 10515 10514 10512 10511 10510 10508 10507 10506 10505 10503 10500 10497 10495 10492 10490 10488 10485 10482 10479 10475 10471 10466 10462 10458 10453 10449 10444 10439 10433 10428 10423 10417 10411 10404 10398 10391 10384 10378 10370 10363 10356 10348 10340 10332 10323 10315 10307 10298 10290 10281 10273 10266 10256 10247 10238 10227 10217 10207 10196 10186 10176 10166 10156 10144 10128 10113 10102 10092 10080 10070 10061 10048 10033 10021 10011 9996 9978 9967 9958 9949 9944 9941
10509 10509 10508 10508 10507 10505 10504 10503 10501 10501 10500 10498 10495 10492 10490 10488 10485 10484 10481 10478 10475 10471 10467 10463 10459 10454 10450 10445 10441 10436 10430 10425 10420 10415 10409 10403 10396 10390 10383 10376 10369 10362 10355 10347 10339 10331 10324 10315 10306 10298 10289 10281 10273 10264 10256 10248 10238 10229 10218 10207 10198 10187 10176 10165 10154 10144 10134 10123 10108 10094 10083 10073 10062 10052 10042 10028 10013 10003 9990 9973 9960 9952 9940 9932 9929
10502 10501 10501 10501 10499 10498 10497 10496 10495 10494 10493 10490 10488 10485 10483 10481 10479 10477 10475 10471 10468 10464 10460 10455 10451 10446 10442 10437 10433 10428 10422 10417 10412 10407 10401 10395 10388 10382 10375 10368 10361 10354 10346 10339 10332 10324 10316 10307 10297 10289 10281 10272 10264 10256 10247 10239 10231 10221 10211 10201 10190 10179 10167 10155 10144 10133 10122 10113 10102 10087 10072 10063 10055 10044 10033 10023 10011 10000 9988 9969 9954 9946 9936 9925 9918
10495 10495 10495 10494 10493 10492 10491 10489 10488 10487 10485 10483 10480 10478 10476 10474 10473 10470 10468 10464 10460 10457 10452 10448 10443 10439 10434 10429 10425 10420 10415 10409 10404 10398 10393 10387 10381 10374 10367 10360 10352 10346 10339 10331 10324 10316 10308 10299 10289 10280 10272 10264 10255 10247 10239 10230 10222 10213 10204 10193 10182 10169 10156 10144 10133 10121 10109 10098 10090 10080 10066 10054 10047 10039 10027 10016 10006 9997 9989 9973 9953 9939 9929 9920 9915
10489 10489 10488 10488 10487 10485 10483 10482 10481 10480 10478 10476 10474 10472 10469 10468 10466 10464 10460 10457 10453 10449 10445 10440 10435 10431 10426 10421 10417 10412 10407 10401 10396 10390 10385 10379 10373 10366 10359 10352 10345 10338 10331 10324 10316 10308 10300 10291 10282 10272 10264 10256 10247 10238 10230 10221 10212 10204 10195 10185 10173 10160 10147 10134 10123 10111 10099 10087 10078 10071 10060 10047 10039 10033 10021 10009 9998 9986 9979 9972 9957 9941 9926 9914 9910
10482 10482 10481 10481 10479 10477 10476 10475 10474 10472 10470 10468 10466 10464 10462 10461 10459 10456 10453 10450 10445 10441 10437 10433 10428 10423 10418 10413 10409 10404 10399 10393 10388 10382 10377 10371 10365 10358 10351 10344 10337 10330 10324 10316 10308 10300 10292 10283 10274 10264 10255 10247 10239 10230 10222 10213 10203 10194 10185 10175 10164 10152 10139 10126 10115 10104 10092 10080 10070 10063 10053 10041 10032 10025 10014 10002 9992 9980 9968 9961 9952 9941 9928 9911 9900
10474 10474 10473 10472 10471 10469 10468 10468 10466 10465 10462 10460 10459 10457 10455 10454 10452 10449 10446 10442 10438 10434 10430 10425 10420 10416 10411 10406 10402 10397 10391 10386 10380 10374 10369 10363 10357 10350 10343 10336 10330 10323 10316 10309 10300 10292 10284 10275 10266 10256 10247 10238 10230 10221 10213 10205 10195 10185 10175 10165 10155 10143 10131 10118 10108 10098 10086 10073 10063 10056 10047 10034 10023 10018 10009 9995 9985 9974 9962 9953 9943 9931 9923 9909 9893
10466 10466 10465 10464 10463 10462 10461 10460 10458 10456 10454 10453 10451 10450 10448 10447 10445 10442 10439 10435 10430 10427 10422 10418 10413 10408 10403 10398 10394 10389 10384 10378 10372 10366 10361 10356 10349 10343 10336 10329 10322 10315 10308 10301 10293 10284 10276 10268 10259 10250 10240 10231 10221 10213 10204 10195 10186 10176 10166 10156 10145 10134 10123 10111 10100 10090 10081 10068 10055 10048 10041 10029 10015 10007 10000 9988 9976 9966 9954 9945 9937 9925 9915 9908 9893
10459 10458 10457 10456 10455 10454 10453 10451 10450 10448 10446 10445 10444 10442 10441 10440 10438 10435 10431 10427 10423 10419 10415 10410 10406 10401 10395 10391 10387 10382 10376 10371 10364 10358 10353 10348 10342 10335 10328 10322 10314 10308 10301 10293 10285 10277 10268 10261 10254 10244 10234 10225 10215 10206 10197 10187 10177 10166 10155 10144 10133 10124 10113 10102 10092 10082 10073 10063 10049 10038 10032 10023 10008 9997 9990 9979 9966 9956 9945 9935 9927 9917 9906 9899 9890
10451 10451 10450 10449 10448 10446 10444 10443 10441 10440 10438 10437 10437 10436 10434 10433 10430 10427 10424 10419 10415 10411 10407 10403 10399 10393 10388 10383 10379 10374 10369 10363 10356 10351 10346 10340 10334 10328 10321 10314 10307 10300 10294 10286 10277 10269 10260 10253 10245 10237 10228 10218 10209 10199 10189 10178 10167 10156 10144 10132 10121 10111 10101 10091 10082 10074 10065 10056 10043 10029 10020 10013 10000 9987 9979 9970 9958 9947 9936 9926 9917 9905 9894 9886 9879
10443 10443 10442 10441 10439 10437 10435 10434 10433 10432 10431 10431 10430 10429 10428 10426 10423 10419 10415 10411 10407 10403 10399 10395 10391 10386 10381 10376 10371 10367 10362 10356 10349 10344 10339 10333 10327 10321 10314 10307 10300 10293 10286 10278 10270 10261 10252 10244 10236 10228 10221 10212 10202 10192 10181 10169 10157 10145 10134 10122 10111 10101 10091 10079 10070 10062 10054 10045 10034 10021 10009 10000 9990 9977 9967 9959 9949 9939 9927 9917 9908 9897 9886 9878 9871
10435 10434 10433 10432 10430 10428 10427 10426 10425 10425 10424 10424 10423 10422 10420 10418 10415 10411 10407 10403 10399 10395 10391 10388 10383 10378 10373 10369 10364 10359 10354 10348 10341 10336 10331 10325 10320 10314 10307 10299 10292 10286 10279 10271 10262 10254 10245 10236 10227 10219 10212 10205 10195 10185 10174 10162 10150 10138 10126 10114 10102 10091 10081 10070 10058 10049 10039 10030 10022 10011 9998 9987 9977 9966 9956 9946 9937 9928 9918 9910 9905 9896 9884 9873 9862
10426 10425 10424 10423 10421 10419 10419 10419 10419 10419 10418 10416 10415 10414 10413 10410 10406 10403 10399 10395 10391 10387 10383 10380 10376 10370 10366 10361 10356 10352 10347 10340 10334 10329 10323 10318 10312 10306 10299 10292 10285 10278 10271 10264 10255 10247 10239 10230 10220 10211 10204 10197 10188 10179 10169 10156 10145 10133 10120 10107 10094 10082 10071 10059 10048 10037 10027 10017 10008 9999 9987 9974 9963 9953 9945 9937 9928 9919 9910 9902 9897 9890 9880 9868 9854
10417 10416 10415 10414 10413 10412 10413 10414 10414 10413 10411 10409 10408 10406 10404 10401 10398 10395 10391 10387 10383 10379 10376 10373 10368 10363 10359 10354 10349 10345 10339 10333 10327 10322 10316 10311 10305 10299 10292 10285 10277 10271 10264 10257 10249 10241 10233 10224 10214 10204 10196 10189 10181 10172 10163 10151 10140 10129 10117 10102 10088 10075 10061 10049 10037 10026 10015 10005 9996 9986 9975 9964 9952 9943 9936 9928 9920 9912 9902 9892 9884 9877 9869 9860 9847
10406 10406 10406 10405 10405 10406 10407 10407 10407 10406 10404 10402 10400 10398 10396 10393 10390 10387 10383 10379 10374 10371 10369 10365 10360 10356 10351 10346 10342 10337 10331 10325 10320 10314 10309 10303 10297 10291 10284 10277 10270 10263 10256 10250 10242 10234 10227 10218 10209 10199 10190 10182 10174 10165 10156 10146 10134 10124 10113 10099 10084 10071 10057 10043 10030 10017 10005 9995 9984 9975 9965 9954 9943 9932 9923 9915 9907 9900 9891 9881 9872 9864 9856 9849 9841
10397 10399 10399 10398 10398 10398 10398 10399 10399 10397 10395 10393 10391 10389 10387 10385 10382 10379 10375 10370 10366 10364 10361 10357 10352 10348 10344 10339 10334 10329 10323 10318 10313 10307 10302 10296 10290 10284 10277 10270 10262 10254 10247 10241 10235 10227 10220 10212 10203 10194 10184 10175 10167 10158 10149 10139 10128 10118 10107 10094 10080 10067 10054 10041 10028 10015 10002 9990 9978 9967 9956 9945 9933 9922 9912 9902 9893 9884 9877 9869 9860 9853 9844 9838 9834
10391 10392 10390 10388 10388 10388 10389 10390 10389 10387 10385 10384 10383 10381 10379 10376 10374 10371 10366 10362 10359 10356 10353 10349 10344 10341 10336 10331 10327 10321 10315 10311 10306 10300 10295 10289 10282 10276 10270 10262 10254 10246 10239 10233 10226 10219 10212 10205 10196 10187 10178 10168 10159 10150 10140 10131 10120 10109 10099 10088 10076 10063 10050 10037 10026 10014 10001 9989 9976 9963 9951 9939 9927 9915 9903 9891 9880 9871 9863 9856 9849 9843 9836 9828 9823
10382 10381 10379 10378 10378 10379 10380 10380 10379 10377 10376 10376 10374 10372 10370 10368 10365 10362 10358 10354 10351 10348 10345 10341 10337 10333 10329 10324 10319 10313 10308 10303 10298 10293 10288 10281 10275 10268 10262 10255 10246 10238 10232 10225 10218 10211 10203 10196 10188 10179 10170 10160 10150 10140 10130 10120 10110 10100 10090 10080 10069 10058 10045 10032 10020 10009 9997 9985 9972 9960 9949 9936 9922 9909 9896 9884 9873 9863 9854 9846 9840 9833 9828 9822 9815
10370 10369 10370 10370 10370 10370 10370 10369 10369 10368 10367 10367 10365 10364 10361 10359 10357 10354 10350 10346 10343 10340 10337 10333 10329 10325 10321 10317 10311 10305 10301 10296 10291 10285 10280 10274 10268 10261 10255 10247 10239 10231 10224 10218 10211 10202 10194 10187 10179 10170 10161 10151 10141 10131 10121 10110 10101 10091 10081 10071 10060 10049 10038 10026 10013 10001 9990 9979 9967 9954 9943 9930 9916 9902 9889 9877 9866 9856 9846 9838 9831 9825 9818 9813 9809
10360 10361 10361 10361 10360 10359 10359 10359 10360 10359 10358 10358 10356 10355 10352 10350 10348 10345 10342 10338 10335 10332 10328 10325 10321 10318 10314 10308 10303 10298 10294 10289 10283 10278 10273 10267 10261 10255 10247 10239 10232 10224 10216 10210 10203 10194 10186 10179 10170 10161 10152 10142 10131 10121 10111 10101 10091 10081 10071 10060 10049 10038 10027 10016 10005 9994 9982 9971 9959 9946 9934 9921 9908 9894 9881 9869 9858 9849 9839 9829 9822 9816 9808 9802 9798
10352 10352 10351 10350 10350 10350 10349 10350 10350 10350 10349 10348 10347 10346 10343 10341 10339 10336 10333 10330 10327 10323 10320 10317 10314 10311 10306 10300 10295 10291 10286 10281 10275 10270 10266 10260 10254 10248 10240 10233 10225 10217 10209 10203 10195 10186 10179 10170 10161 10151 10142 10132 10121 10110 10100 10091 10081 10071 10061 10050 10038 10027 10016 10005 9995 9984 9973 9961 9948 9936 9923 9912 9900 9887 9874 9863 9852 9841 9831 9821 9812 9806 9799 9790 9783
10342 10342 10341 10340 10341 10341 10341 10341 10341 10340 10339 10339 10338 10337 10334 10332 10330 10327 10324 10322 10318 10315 10312 10310 10306 10303 10298 10292 10288 10284 10279 10273 10268 10263 10259 10253 10247 10241 10234 10227 10219 10211 10203 10196 10187 10179 10171 10162 10152 10142 10132 10122 10112 10101 10089 10080 10070 10061 10050 10039 10027 10016 10006 9996 9985 9973 9962 9950 9938 9926 9914 9902 9891 9880 9868 9856 9845 9835 9825 9814 9804 9797 9791 9782 9772
10331 10331 10330 10330 10331 10331 10332 10332 10331 10330 10329 10329 10328 10327 10325 10323 10320 10318 10315 10313 10310 10307 10305 10302 10299 10295 10290 10285 10280 10276 10271 10265 10261 10257 10251 10245 10239 10233 10227 10220 10213 10205 10197 10189 10180 10172 10163 10154 10144 10134 10124 10113 10103 10092 10080 10069 10059 10049 10039 10028 10018 10007 9996 9985 9974 9963 9951 9940 9929 9918 9907 9894 9882 9871 9859 9848 9837 9827 9818 9808 9798 9790 9784 9776 9766
10320 10320 10320 10320 10321 10322 10322 10322 10321 10320 10320 10319 10318 10317 10315 10313 10311 10309 10306 10304 10301 10299 10297 10294 10291 10286 10282 10277 10273 10268 10263 10258 10254 10250 10244 10238 10232 10226 10221 10213 10206 10198 10190 10181 10173 10165 10156 10146 10136 10126 10116 10105 10095 10085 10073 10061 10050 10039 10029 10019 10008 9996 9985 9974 9964 9954 9943 9932 9921 9910 9898 9885 9873 9861 9849 9838 9828 9819 9810 9803 9793 9784 9777 9770 9760
10308 10309 10308 10310 10311 10311 10312 10312 10311 10311 10311 10310 10309 10308 10306 10304 10302 10300 10297 10295 10293 10291 10289 10286 10282 10278 10273 10269 10265 10260 10255 10251 10247 10243 10237 10231 10225 10220 10214 10206 10199 10192 10183 10174 10165 10157 10148 10138 10128 10119 10109 10097 10087 10077 10066 10054 10043 10031 10019 10009 9998 9987 9976 9966 9956 9945 9934 9923 9912 9900 9888 9875 9864 9853 9841 9830 9819 9810 9802 9795 9786 9778 9770 9762 9755
10296 10296 10296 10297 10299 10300 10301 10302 10302 10301 10301 10300 10300 10299 10297 10294 10293 10291 10289 10287 10286 10284 10281 10278 10274 10269 10265 10261 10257 10252 10247 10243 10240 10236 10230 10224 10218 10213 10207 10200 10193 10185 10176 10167 10158 10150 10141 10131 10121 10112 10102 10090 10079 10068 10057 10046 10034 10022 10010 9999 9989 9979 9969 9958 9947 9935 9924 9913 9902 9890 9879 9867 9855 9844 9834 9822 9812 9802 9794 9786 9778 9769 9762 9755 9747
10283 10284 10284 10285 10286 10287 10289 10290 10291 10290 10290 10290 10290 10289 10286 10284 10283 10282 10280 10279 10278 10275 10273 10269 10265 10261 10257 10253 10249 10245 10241 10236 10232 10228 10223 10218 10212 10207 10200 10193 10186 10179 10170 10160 10151 10143 10133 10123 10114 10104 10094 10083 10072 10061 10050 10038 10027 10014 10002 9991 9981 9971 9961 9950 9938 9926 9914 9903 9891 9880 9870 9859 9847 9837 9827 9816 9805 9794 9784 9777 9770 9761 9754 9747 9740
10271 10271 10272 10273 10274 10276 10277 10278 10278 10279 10279 10280 10280 10278 10276 10275 10274 10274 10272 10270 10269 10267 10263 10260 10256 10252 10249 10245 10241 10237 10234 10229 10224 10220 10216 10211 10206 10199 10193 10186 10179 10171 10162 10153 10145 10136 10126 10116 10106 10097 10086 10076 10065 10055 10043 10032 10021 10009 9996 9984 9973 9964 9954 9942 9930 9918 9906 9894 9882 9871 9861 9851 9841 9830 9819 9809 9798 9787 9776 9768 9761 9753 9746 9739 9732
10259 10259 10260 10260 10262 10264 10266 10266 10266 10267 10268 10269 10269 10268 10267 10266 10266 10265 10263 10261 10260 10257 10254 10250 10247 10244 10241 10238 10234 10230 10227 10222 10218 10213 10209 10204 10198 10192 10185 10179 10172 10164 10155 10146 10138 10129 10120 10109 10098 10089 10079 10068 10058 10048 10037 10026 10015 10004 9992 9980 9968 9957 9947 9935 9922 9910 9898 9886 9874 9863 9852 9842 9832 9821 9810 9800 9791 9781 9771 9762 9753 9745 9738 9731 9725
10247 10247 10247 10248 10250 10252 10253 10253 10254 10255 10257 10257 10257 10257 10257 10257 10256 10255 10253 10252 10250 10248 10244 10241 10238 10236 10233 10230 10227 10223 10220 10216 10211 10207 10202 10197 10191 10184 10177 10172 10165 10157 10148 10139 10130 10121 10112 10103 10092 10082 10072 10062 10051 10040 10029 10019 10008 9997 9987 9976 9964 9951 9939 9927 9914 9902 9890 9878 9867 9856 9845 9834 9824 9814 9803 9793 9785 9776 9766 9756 9748 9739 9731 9724 9717
10235 10236 10236 10237 10239 10240 10241 10242 10242 10244 10245 10246 10246 10246 10246 10247 10247 10246 10244 10242 10241 10238 10235 10233 10230 10228 10225 10223 10219 10216 10213 10209 10205 10200 10195 10190 10183 10176 10170 10164 10158 10149 10140 10132 10123 10113 10104 10095 10085 10075 10066 10056 10045 10034 10023 10012 10002 9991 9980 9969 9957 9945 9932 9919 9907 9894 9882 9870 9859 9848 9837 9827 9817 9807 9797 9786 9777 9768 9759 9750 9741 9733 9725 9717 9710
10223 10223 10225 10227 10229 10230 10230 10230 10231 10233 10234 10234 10235 10236 10237 10237 10238 10237 10235 10233 10232 10229 10227 10225 10223 10221 10218 10215 10212 10209 10206 10203 10198 10193 10188 10182 10176 10169 10163 10157 10150 10142 10134 10125 10116 10106 10096 10087 10078 10069 10059 10049 10039 10029 10018 10006 9995 9985 9974 9962 9950 9937 9925 9912 9899 9886 9874 9862 9850 9840 9829 9819 9809 9800 9790 9780 9770 9761 9752 9743 9735 9727 9720 9712 9705
10213 10212 10214 10217 10220 10220 10220 10220 10221 10223 10223 10224 10226 10227 10228 10229 10228 10227 10226 10225 10224 10222 10220 10218 10216 10213 10211 10207 10204 10202 10200 10196 10191 10186 10181 10175 10169 10162 10156 10149 10142 10135 10127 10119 10109 10100 10091 10082 10073 10063 10054 10043 10033 10022 10011 10000 9990 9979 9968 9956 9943 9930 9917 9904 9891 9878 9866 9854 9843 9832 9821 9810 9801 9791 9781 9772 9763 9755 9746 9737 9728 9721 9714 9707 9700
10204 10203 10204 10207 10209 10210 10211 10211 10212 10213 10214 10216 10218 10220 10220 10220 10219 10218 10218 10218 10217 10215 10214 10211 10208 10206 10203 10200 10198 10196 10193 10189 10185 10180 10175 10168 10162 10155 10149 10142 10134 10127 10120 10112 10103 10093 10084 10076 10067 10058 10047 10037 10026 10015 10005 9995 9984 9973 9960 9948 9936 9923 9910 9897 9884 9872 9859 9847 9836 9824 9813 9803 9793 9784 9776 9767 9757 9749 9741 9732 9723 9716 9709 9702 9696
10193 10194 10195 10197 10200 10201 10202 10203 10204 10204 10206 10208 10211 10212 10211 10211 10211 10212 10212 10212 10210 10209 10207 10204 10202 10200 10197 10194 10191 10189 10186 10182 10178 10174 10168 10161 10155 10149 10142 10134 10127 10120 10113 10105 10096 10087 10078 10069 10061 10052 10041 10031 10020 10010 9999 9989 9977 9965 9953 9940 9927 9915 9902 9889 9876 9864 9853 9841 9829 9818 9808 9798 9788 9780 9772 9763 9753 9744 9736 9728 9719 9711 9704 9698 9691
10181 10183 10185 10188 10190 10192 10194 10195 10196 10197 10199 10201 10202 10203 10204 10205 10205 10206 10206 10205 10204 10202 10199 10197 10195 10193 10190 10187 10185 10182 10179 10175 10171 10167 10161 10155 10148 10142 10135 10128 10120 10113 10105 10097 10089 10080 10072 10063 10055 10045 10035 10025 10014 10004 9993 9982 9970 9958 9946 9933 9919 9907 9894 9882 9870 9858 9846 9835 9823 9813 9802 9793 9784 9775 9766 9758 9749 9740 9731 9723 9715 9707 9700 9694 9689
10170 10172 10174 10177 10179 10182 10185 10188 10189 10190 10191 10192 10193 10195 10197 10198 10198 10199 10199 10198 10196 10194 10192 10190 10189 10186 10183 10181 10178 10175 10172 10169 10165 10160 10154 10148 10142 10135 10128 10121 10114 10106 10098 10090 10082 10073 10065 10056 10047 10038 10028 10018 10008 9997 9987 9975 9963 9951 9939 9926 9913 9900 9888 9876 9864 9853 9841 9829 9818 9808 9798 9788 9779 9770 9761 9752 9744 9736 9727 9720 9712 9705 9698 9692 9686
10159 10161 10163 10166 10168 10171 10176 10179 10181 10182 10183 10184 10186 10188 10189 10190 10192 10193 10192 10191 10189 10188 10186 10184 10182 10179 10177 10174 10171 10169 10166 10162 10158 10153 10147 10141 10135 10129 10122 10115 10107 10100 10092 10083 10075 10067 10058 10050 10041 10031 10021 10011 10001 9991 9980 9969 9957 9945 9932 9920 9907 9895 9882 9871 9859 9848 9836 9824 9814 9804 9794 9784 9775 9765 9756 9748 9740 9732 9724 9717 9709 9702 9696 9690 9684
10148 10150 10152 10155 10157 10161 10166 10170 10172 10173 10176 10178 10179 10180 10181 10183 10185 10186 10185 10184 10183 10182 10180 10178 10176 10173 10171 10168 10165 10162 10159 10155 10151 10146 10140 10134 10128 10122 10116 10109 10101 10093 10085 10077 10069 10060 10052 10043 10034 10025 10015 10005 9996 9985 9975 9963 9951 9939 9926 9914 9902 9889 9877 9865 9854 9842 9831 9820 9809 9799 9789 9780 9771 9762 9753 9745 9737 9729 9721 9714 9707 9700 9694 9688 9683
10138 10140 10142 10144 10147 10151 10156 10160 10163 10166 10169 10171 10171 10173 10175 10177 10179 10179 10178 10178 10178 10176 10174 10172 10170 10167 10164 10162 10159 10157 10153 10149 10144 10139 10134 10128 10122 10116 10109 10102 10095 10087 10079 10071 10063 10054 10046 10037 10028 10019 10010 10000 9991 9980 9969 9957 9945 9933 9921 9908 9896 9884 9872 9861 9850 9838 9826 9815 9805 9795 9786 9776 9767 9759 9750 9742 9734 9726 9719 9712 9705 9699 9693 9687 9682
10128 10129 10132 10135 10138 10141 10145 10150 10155 10159 10161 10163 10165 10167 10169 10170 10172 10172 10172 10172 10172 10170 10168 10166 10164 10161 10158 10156 10154 10151 10147 10142 10138 10133 10128 10122 10116 10110 10103 10096 10089 10081 10073 10065 10057 10049 10040 10031 10023 10014 10005 9995 9985 9974 9963 9952 9940 9928 9916 9904 9891 9879 9868 9857 9846 9834 9823 9812 9802 9792 9782 9773 9765 9757 9749 9740 9732 9724 9717 9710 9704 9697 9692 9686 9681
10120 10121 10124 10127 10129 10132 10135 10140 10146 10151 10154 10157 10160 10162 10163 10164 10165 10166 10166 10167 10167 10165 10163 10160 10157 10155 10153 10151 10148 10144 10141 10136 10132 10127 10121 10116 10110 10104 10097 10090 10083 10075 10068 10060 10051 10043 10035 10026 10017 10008 10000 9990 9980 9969 9957 9946 9934 9922 9911 9899 9887 9876 9865 9854 9842 9831 9820 9810 9799 9789 9780 9772 9764 9755 9747 9739 9731 9724 9716 9709 9703 9697 9692 9686 9681
10113 10115 10117 10119 10122 10125 10127 10131 10137 10143 10148 10152 10155 10157 10158 10159 10160 10161 10162 10162 10162 10160 10157 10155 10152 10150 10148 10146 10142 10138 10135 10131 10126 10121 10115 10110 10104 10097 10091 10084 10077 10070 10062 10054 10046 10038 10030 10021 10012 10003 9994 9984 9974 9963 9952 9940 9929 9917 9906 9895 9883 9872 9861 9850 9839 9828 9818 9807 9797 9788 9779 9771 9763 9754 9746 9738 9731 9724 9716 9709 9703 9697 9692 9687 9682
10107 10109 10111 10113 10116 10119 10121 10125 10131 10137 10143 10148 10152 10154 10154 10155 10157 10157 10158 10158 10156 10154 10152 10150 10148 10145 10143 10140 10136 10133 10129 10125 10120 10115 10109 10104 10098 10092 10085 10078 10071 10064 10056 10049 10041 10033 10025 10016 10008 9999 9989 9979 9968 9957 9947 9935 9923 9912 9901 9890 9879 9868 9857 9847 9836 9826 9815 9805 9796 9787 9778 9770 9762 9754 9746 9738 9731 9723 9716 9710 9704 9698 9693 9688 9683
10102 10104 10106 10108 10111 10114 10117 10122 10127 10133 10138 10144 10148 10150 10150 10152 10154 10155 10155 10153 10151 10149 10147 10145 10143 10140 10138 10135 10131 10127 10123 10119 10114 10109 10104 10098 10092 10086 10079 10072 10065 10058 10051 10044 10037 10029 10020 10012 10003 9994 9984 9973 9963 9952 9941 9930 9918 9907 9896 9886 9875 9864 9854 9843 9833 9822 9812 9803 9795 9787 9778 9770 9761 9753 9745 9738 9731 9724 9717 9711 9705 9700 9695 9690 9685
10098 10100 10102 10104 10107 10111 10115 10119 10124 10128 10133 10139 10143 10146 10147 10149 10151 10151 10150 10148 10146 10144 10143 10140 10137 10135 10133 10130 10126 10122 10117 10113 10108 10103 10098 10092 10086 10080 10074 10067 10060 10053 10046 10039 10032 10024 10015 10007 9998 9989 9978 9968 9958 9948 9937 9925 9914 9903 9892 9882 9871 9861 9850 9840 9830 9820 9811 9803 9795 9788 9779 9770 9761 9753 9746 9739 9732 9725 9719 9713 9707 9702 9697 9692 9687
10095 10097 10099 10102 10105 10108 10112 10117 10121 10126 10130 10135 10140 10143 10145 10147 10147 10146 10145 10143 10142 10140 10138 10135 10133 10130 10127 10124 10120 10116 10111 10107 10102 10097 10092 10086 10081 10074 10068 10061 10054 10048 10042 10035 10027 10019 10011 10002 9993 9984 9974 9964 9954 9943 9932 9921 9909 9899 9889 9879 9868 9858 9848 9838 9829 9820 9811 9803 9795 9788 9779 9771 9762 9755 9747 9740 9734 9727 9721 9715 9710 9705 9700 9695 9690
10093 10095 10098 10100 10103 10107 10111 10116 10120 10125 10130 10134 10137 10140 10142 10143 10142 10141 10140 10138 10136 10135 10133 10131 10128 10126 10122 10118 10115 10110 10106 10102 10097 10091 10086 10081 10075 10069 10062 10056 10050 10044 10037 10030 10022 10014 10006 9998 9989 9979 9969 9960 9950 9939 9928 9916 9905 9895 9886 9876 9865 9855 9846 9837 9829 9820 9811 9803 9795 9788 9780 9772 9764 9757 9749 9743 9736 9729 9723 9718 9712 9707 9702 9697 9692
10092 10094 10096 10099 10103 10107 10111 10116 10121 10125 10129 10132 10135 10136 10137 10137 10137 10136 10135 10133 10132 10130 10128 10126 10124 10121 10117 10113 10109 10105 10100 10096 10091 10086 10081 10075 10070 10063 10057 10052 10046 10040 10033 10026 10018 10010 10002 9993 9984 9975 9965 9955 9945 9934 9923 9912 9902 9892 9883 9873 9863 9854 9845 9836 9827 9819 9810 9802 9795 9788 9781 9773 9765 9758 9751 9744 9738 9731 9725 9719 9714 9709 9704 9700 9695